FW7297 Weather Reports


Display with metric or nautical units.
time (UTC)temp
F
wind
direction
speed
MPH
gust
MPH
rain 1hr
in
rain 24hr
in
rain mn
in
humidity
%
barometer
mb
20260906012704 77 44 0.0 2.0 0.00 0.00 0.00 76 1011.0
20260906012205 77 44 0.0 2.0 0.00 0.00 0.00 76 1010.9
20260906011707 77 308 1.0 2.0 0.00 0.00 0.00 75 1011.1
20260906011205 77 98 1.0 2.0 0.00 0.00 0.00 75 1011.0
20260906010705 77 284 0.0 1.0 0.00 0.00 0.00 74 1011.0
20260906010205 78 276 0.0 2.0 0.00 0.00 0.00 74 1011.1
20260906005205 78 168 1.0 2.0 0.00 0.00 0.00 73 1011.1
20260906004705 78 98 1.0 3.0 0.00 0.00 0.00 73 1011.1
20260906004205 78 204 2.0 3.0 0.00 0.00 0.00 72 1011.2
20260906003705 78 236 1.0 5.0 0.00 0.00 0.00 73 1011.2
20260906002705 81 224 3.0 5.0 0.00 0.00 0.00 69 1011.6
20260906002205 82 201 2.0 5.0 0.00 0.00 0.00 65 1012.0
20260906001705 84 250 3.0 5.0 0.00 0.00 0.00 63 1011.9
20260906001205 86 305 3.0 5.0 0.00 0.00 0.00 63 1011.6
20260906000705 87 269 1.0 2.0 0.00 0.00 0.00 62 1011.6
20260905235204 88 74 1.0 2.0 0.00 0.00 0.00 57 1010.8
20260905234705 89 174 1.0 2.0 0.00 0.00 0.00 56 1010.7
20260905234205 89 177 1.0 2.0 0.00 0.00 0.00 55 1010.6
20260905233704 89 143 1.0 5.0 0.00 0.00 0.00 55 1010.7
20260905233206 90 88 1.0 5.0 0.00 0.00 0.00 54 1010.5
20260905232706 90 112 2.0 5.0 0.00 0.00 0.00 53 1010.5
20260905232205 91 122 1.0 5.0 0.00 0.00 0.00 52 1010.4
20260905231705 91 197 1.0 5.0 0.00 0.00 0.00 52 1010.2
20260905231204 91 152 1.0 5.0 0.00 0.00 0.00 52 1010.1
20260905230704 92 112 2.0 5.0 0.00 0.00 0.00 51 1010.2
20260905230205 92 100 1.0 3.0 0.00 0.00 0.00 50 1010.2
20260905225704 92 129 1.0 3.0 0.00 0.00 0.00 49 1010.3
20260905225205 93 135 2.0 5.0 0.00 0.00 0.00 48 1010.2
20260905224706 93 139 2.0 5.0 0.00 0.00 0.00 47 1010.3
20260905224205 93 142 2.0 5.0 0.00 0.00 0.00 47 1010.5
20260905223705 94 155 3.0 5.0 0.00 0.00 0.00 45 1010.5
20260905223204 94 139 1.0 2.0 0.00 0.00 0.00 46 1010.3
20260905222705 94 112 1.0 3.0 0.00 0.00 0.00 45 1010.5
20260905222204 94 83 1.0 3.0 0.00 0.00 0.00 45 1010.5
20260905221704 94 99 1.0 6.0 0.00 0.00 0.00 46 1010.4
20260905221205 93 141 1.0 6.0 0.00 0.00 0.00 46 1010.5
20260905220205 93 190 1.0 6.0 0.00 0.00 0.00 48 1010.5
20260905215706 94 121 3.0 6.0 0.00 0.00 0.00 48 1010.5
20260905212704 94 82 2.0 5.0 0.00 0.00 0.00 47 1010.7
20260905212205 96 345 2.0 5.0 0.00 0.00 0.00 45 1010.8
20260905211704 94 225 0.0 5.0 0.00 0.00 0.00 43 1010.9
20260905211204 94 62 3.0 5.0 0.00 0.00 0.00 45 1010.8
20260905210705 93 127 1.0 8.0 0.00 0.00 0.00 46 1010.8
20260905210205 94 109 3.0 8.0 0.00 0.00 0.00 45 1011.0
20260905205704 95 92 4.0 7.0 0.00 0.00 0.00 43 1010.6
20260905205205 93 116 4.0 7.0 0.00 0.00 0.00 47 1010.8
20260905204704 91 121 3.0 6.0 0.00 0.00 0.00 47 1010.6
20260905204204 90 142 0.0 6.0 0.00 0.00 0.00 51 1011.1
20260905203705 91 64 2.0 6.0 0.00 0.00 0.00 51 1011.2
20260905203205 92 113 2.0 6.0 0.00 0.00 0.00 51 1011.0
20260905202705 92 119 2.0 6.0 0.00 0.00 0.00 50 1011.0
20260905201705 92 90 3.0 9.0 0.00 0.00 0.00 53 1011.3
20260905201204 94 86 5.0 9.0 0.00 0.00 0.00 51 1011.4
20260905200704 94 111 3.0 9.0 0.00 0.00 0.00 52 1011.2
20260905200205 94 77 4.0 8.0 0.00 0.00 0.00 52 1011.2
20260905195705 94 87 3.0 10.0 0.00 0.00 0.00 50 1011.4
20260905195204 96 108 5.0 10.0 0.00 0.00 0.00 48 1011.2
20260905194705 96 113 2.0 8.0 0.00 0.00 0.00 45 1011.4
20260905194204 100 175 2.0 8.0 0.00 0.00 0.00 41 1011.3
20260905193705 100 104 3.0 8.0 0.00 0.00 0.00 41 1011.3
20260905193205 99 185 3.0 5.0 0.00 0.00 0.00 39 1011.3
20260905192704 99 223 2.0 6.0 0.00 0.00 0.00 40 1011.2
20260905192205 99 202 2.0 6.0 0.00 0.00 0.00 40 1011.3
20260905191704 100 170 3.0 7.0 0.00 0.00 0.00 38 1011.3
20260905191204 101 232 3.0 7.0 0.00 0.00 0.00 38 1011.9
20260905190704 100 131 3.0 6.0 0.00 0.00 0.00 40 1011.8
20260905190204 100 221 3.0 6.0 0.00 0.00 0.00 41 1011.8
20260905185704 98 85 2.0 6.0 0.00 0.00 0.00 42 1011.7
20260905185205 96 161 2.0 6.0 0.00 0.00 0.00 42 1011.6
20260905184704 98 199 5.0 6.0 0.00 0.00 0.00 42 1011.8
20260905184204 98 188 2.0 5.0 0.00 0.00 0.00 42 1011.9
20260905183704 97 264 2.0 7.0 0.00 0.00 0.00 43 1011.9
20260905183204 96 99 1.0 9.0 0.00 0.00 0.00 44 1012.1
20260905182705 96 332 2.0 9.0 0.00 0.00 0.00 45 1012.1
20260905182204 95 134 1.0 5.0 0.00 0.00 0.00 45 1012.3
20260905181205 97 141 3.0 7.0 0.00 0.00 0.00 43 1012.1
20260905180704 99 100 5.0 7.0 0.00 0.00 0.00 42 1012.1
20260905180204 98 63 2.0 5.0 0.00 0.00 0.00 44 1012.4
20260905175704 95 113 2.0 3.0 0.00 0.00 0.00 47 1012.4
20260905175204 96 347 1.0 6.0 0.00 0.00 0.00 45 1012.5
20260905174705 97 118 2.0 6.0 0.00 0.00 0.00 44 1012.7
20260905174204 96 132 4.0 9.0 0.00 0.00 0.00 46 1012.7
20260905173704 95 225 1.0 9.0 0.00 0.00 0.00 47 1012.4
20260905173204 97 115 4.0 7.0 0.00 0.00 0.00 46 1012.6
20260905172704 97 112 3.0 7.0 0.00 0.00 0.00 46 1012.6
20260905172204 96 148 2.0 6.0 0.00 0.00 0.00 47 1012.8
20260905171205 95 130 3.0 8.0 0.00 0.00 0.00 49 1013.0
20260905170704 95 126 5.0 9.0 0.00 0.00 0.00 50 1013.1
20260905170204 94 138 5.0 9.0 0.00 0.00 0.00 50 1013.1
20260905165704 94 144 6.0 9.0 0.00 0.00 0.00 49 1013.2
20260905165204 95 108 3.0 7.0 0.00 0.00 0.00 49 1013.3
20260905164705 94 115 2.0 6.0 0.00 0.00 0.00 50 1013.3
20260905164204 93 290 2.0 6.0 0.00 0.00 0.00 50 1013.4
20260905163704 94 245 2.0 7.0 0.00 0.00 0.00 50 1013.4
20260905163204 93 115 4.0 7.0 0.00 0.00 0.00 52 1013.4
20260905162704 93 101 4.0 8.0 0.00 0.00 0.00 52 1013.6
20260905161704 91 158 1.0 7.0 0.00 0.00 0.00 54 1013.5
20260905161204 91 124 3.0 7.0 0.00 0.00 0.00 54 1013.8
20260905160705 91 212 2.0 5.0 0.00 0.00 0.00 54 1013.8
20260905155704 89 142 2.0 5.0 0.00 0.00 0.00 59 1013.7
20260905155205 89 316 2.0 3.0 0.00 0.00 0.00 56 1014.0
20260905154704 89 148 1.0 3.0 0.00 0.00 0.00 61 1014.2
20260905153204 85 166 1.0 3.0 0.00 0.00 0.00 67 1014.1
20260905152704 84 20 1.0 3.0 0.00 0.00 0.00 70 1014.2
20260905152204 83 29 2.0 3.0 0.00 0.00 0.00 73 1014.1
20260905151706 83 160 2.0 3.0 0.00 0.00 0.00 74 1014.5
20260905151204 83 172 1.0 3.0 0.00 0.00 0.00 74 1014.2
20260905150706 83 176 2.0 3.0 0.00 0.00 0.00 75 1014.3
20260905150204 83 95 2.0 3.0 0.00 0.00 0.00 75 1014.4
20260905145704 82 249 1.0 3.0 0.00 0.00 0.00 76 1014.3
20260905145204 82 60 1.0 5.0 0.00 0.00 0.00 78 1014.2
20260905144705 82 131 2.0 5.0 0.00 0.00 0.00 78 1014.5
20260905144204 82 139 1.0 3.0 0.00 0.00 0.00 77 1014.3
20260905143704 81 109 0.0 2.0 0.00 0.00 0.00 77 1014.4
20260905142704 80 151 0.0 2.0 0.00 0.00 0.00 79 1014.5
20260905142204 80 240 1.0 2.0 0.00 0.00 0.00 79 1014.5
20260905141704 81 128 1.0 2.0 0.00 0.00 0.00 80 1014.5
20260905141204 80 82 0.0 2.0 0.00 0.00 0.00 80 1014.6
20260905140704 80 172 0.0 2.0 0.00 0.00 0.00 81 1014.3
20260905140204 80 161 1.0 2.0 0.00 0.00 0.00 81 1014.4
20260905135704 80 147 2.0 2.0 0.00 0.00 0.00 81 1014.4
20260905135204 80 206 1.0 2.0 0.00 0.00 0.00 81 1014.4
20260905134204 79 189 1.0 2.0 0.00 0.00 0.00 81 1014.5
20260905133705 78 124 1.0 2.0 0.00 0.00 0.00 82 1014.3
20260905133205 78 129 1.0 2.0 0.00 0.00 0.00 83 1014.4
20260905132704 78 113 1.0 2.0 0.00 0.00 0.00 84 1014.6
20260905132204 78 163 1.0 2.0 0.00 0.00 0.00 85 1014.7
20260905131704 77 71 0.0 2.0 0.00 0.00 0.00 85 1014.8
20260905131204 77 149 0.0 2.0 0.00 0.00 0.00 85 1014.8
20260905130704 76 178 1.0 2.0 0.00 0.00 0.00 86 1014.7
20260905130204 76 165 1.0 2.0 0.00 0.00 0.00 87 1014.8
20260905125704 76 208 0.0 1.0 0.00 0.00 0.00 87 1014.6
20260905125206 75 124 0.0 1.0 0.00 0.00 0.00 88 1014.8
20260905123704 74 206 1.0 2.0 0.00 0.00 0.00 90 1014.7
20260905122204 72 212 0.0 2.0 0.00 0.00 0.00 95 1014.6
20260905121204 71 144 0.0 2.0 0.00 0.00 0.00 96 1014.7
20260905120204 71 130 0.0 1.0 0.00 0.00 0.00 96 1014.7
20260905115704 71 356 0.0 1.0 0.00 0.00 0.00 96 1014.6
20260905115206 71 281 0.0 1.0 0.00 0.00 0.00 96 1014.6
20260905114705 70 342 0.0 2.0 0.00 0.00 0.00 96 1014.5
20260905113704 71 214 0.0 2.0 0.00 0.00 0.00 96 1014.4
20260905112704 71 130 0.0 1.0 0.00 0.00 0.00 96 1014.0
20260905112204 71 279 0.0 1.0 0.00 0.00 0.00 96 1013.6
20260905111704 71 309 0.0 1.0 0.00 0.00 0.00 96 1013.8
20260905105704 71 354 0.0 1.0 0.00 0.00 0.00 96 1013.5
20260905105204 71 77 0.0 1.0 0.00 0.00 0.00 96 1013.3
20260905104704 71 106 0.0 1.0 0.00 0.00 0.00 96 1013.2
20260905104204 71 232 0.0 1.0 0.00 0.00 0.00 96 1013.2
20260905103705 71 217 0.0 2.0 0.00 0.00 0.00 96 1013.4
20260905103204 71 216 1.0 2.0 0.00 0.00 0.00 96 1013.2
20260905102704 71 237 0.0 2.0 0.00 0.00 0.00 96 1013.1
20260905102204 71 215 1.0 2.0 0.00 0.00 0.00 96 1013.2
20260905101704 71 225 0.0 2.0 0.00 0.00 0.00 96 1013.2
20260905101204 71 222 0.0 2.0 0.00 0.00 0.00 96 1013.2
20260905100704 71 216 2.0 2.0 0.00 0.00 0.00 96 1013.0
20260905100204 71 310 0.0 2.0 0.00 0.00 0.00 95 1013.2
20260905095704 70 132 0.0 2.0 0.00 0.00 0.00 95 1013.1
20260905095204 71 217 0.0 2.0 0.00 0.00 0.00 95 1013.1
20260905094704 71 46 0.0 1.0 0.00 0.00 0.00 95 1013.0
20260905094204 71 318 0.0 2.0 0.00 0.00 0.00 96 1013.0
20260905092704 71 233 1.0 2.0 0.00 0.00 0.00 96 1012.7
20260905092204 71 252 1.0 3.0 0.00 0.00 0.00 96 1012.9
20260905091704 71 218 1.0 3.0 0.00 0.00 0.00 95 1012.8
20260905091204 71 169 1.0 3.0 0.00 0.00 0.00 95 1012.8
20260905090704 71 147 1.0 2.0 0.00 0.00 0.00 95 1012.9
20260905090204 71 258 1.0 2.0 0.00 0.00 0.00 95 1012.9
20260905085704 71 234 1.0 2.0 0.00 0.00 0.00 95 1012.8
20260905085205 71 231 0.0 1.0 0.00 0.00 0.00 95 1013.0
20260905084704 71 234 0.0 2.0 0.00 0.00 0.00 94 1013.0
20260905084204 71 204 0.0 2.0 0.00 0.00 0.00 95 1013.0
20260905083704 71 160 1.0 1.0 0.00 0.00 0.00 94 1012.9
20260905082704 72 325 0.0 2.0 0.00 0.00 0.00 95 1013.1
20260905082204 72 0 0.0 2.0 0.00 0.00 0.00 95 1013.1
20260905081203 72 124 0.0 2.0 0.00 0.00 0.00 94 1012.9
20260905075705 72 219 1.0 2.0 0.00 0.00 0.00 95 1012.9
20260905075204 72 244 1.0 2.0 0.00 0.00 0.00 94 1013.1
20260905074703 72 202 1.0 3.0 0.00 0.00 0.00 94 1013.0
20260905074203 72 207 0.0 3.0 0.00 0.00 0.00 94 1013.2
20260905073704 72 174 1.0 2.0 0.00 0.00 0.00 94 1012.9
20260905072203 72 32 0.0 2.0 0.00 0.00 0.00 93 1013.1
20260905071704 72 275 1.0 2.0 0.00 0.00 0.00 93 1013.0
20260905071204 73 223 1.0 2.0 0.00 0.00 0.00 93 1013.3
20260905070704 73 217 0.0 2.0 0.00 0.00 0.00 93 1013.1
20260905070204 73 182 1.0 2.0 0.00 0.00 0.00 93 1013.2
20260905065704 73 104 0.0 2.0 0.00 0.00 0.00 93 1013.2
20260905065204 73 127 1.0 2.0 0.00 0.00 0.00 93 1013.0
20260905064704 73 49 1.0 2.0 0.00 0.00 0.00 93 1013.2
20260905064204 73 281 0.0 3.0 0.00 0.00 0.00 93 1013.3
20260905063704 73 226 1.0 3.0 0.00 0.00 0.00 93 1013.2
20260905063204 73 163 2.0 3.0 0.00 0.00 0.00 92 1013.2
20260905062704 73 184 1.0 3.0 0.00 0.00 0.00 92 1013.1
20260905062205 73 339 1.0 2.0 0.00 0.00 0.00 92 1013.1
20260905061703 74 129 1.0 5.0 0.00 0.00 0.00 92 1013.0
20260905061204 74 276 0.0 5.0 0.00 0.00 0.00 92 1013.1
20260905060703 74 255 1.0 2.0 0.00 0.00 0.00 91 1013.1
20260905060204 74 234 1.0 2.0 0.00 0.00 0.00 91 1013.4
20260905055204 74 60 0.0 2.0 0.00 0.00 0.00 91 1013.4
20260905054204 74 59 1.0 2.0 0.00 0.00 0.00 90 1013.5
20260905052704 74 157 1.0 3.0 0.00 0.00 0.00 90 1013.3
20260905051703 75 188 2.0 3.0 0.00 0.00 0.00 89 1013.1
20260905051203 75 98 1.0 3.0 0.00 0.00 0.00 89 1013.4
20260905050704 75 214 0.0 3.0 0.00 0.00 0.00 88 1013.4
20260905050204 75 343 1.0 3.0 0.00 0.00 0.00 88 1013.5
20260905045703 75 313 1.0 2.0 0.00 0.06 0.00 88 1013.2
20260905044204 76 201 1.0 2.0 0.00 0.06 0.00 88 1013.3
20260905043204 76 198 0.0 1.0 0.00 0.06 0.00 86 1013.3
20260905042704 76 115 0.0 1.0 0.00 0.06 0.00 85 1013.2
20260905042203 76 135 0.0 0.0 0.00 0.06 0.00 85 1013.5
20260905041704 76 55 0.0 1.0 0.00 0.06 0.00 85 1013.4
20260905041204 77 50 0.0 1.0 0.00 0.06 0.00 85 1013.4
20260905040703 77 44 0.0 1.0 0.00 0.06 0.00 85 1013.5
20260905040204 77 117 0.0 1.0 0.00 0.06 0.00 84 1013.4
20260905035203 77 224 0.0 1.0 0.00 0.06 0.00 83 1013.8
20260905034703 78 224 0.0 2.0 0.00 0.06 0.00 83 1013.5
20260905034204 78 255 0.0 2.0 0.00 0.06 0.00 82 1013.7
20260905033204 78 117 0.0 1.0 0.00 0.06 0.00 82 1013.5
20260905032705 78 108 0.0 1.0 0.00 0.06 0.00 81 1013.6
20260905032207 79 236 1.0 1.0 0.00 0.06 0.00 81 1013.9
20260905031705 79 137 0.0 0.0 0.00 0.06 0.00 80 1013.8
20260905031206 79 39 0.0 0.0 0.00 0.06 0.00 79 1013.9
20260905030705 79 104 0.0 1.0 0.00 0.06 0.00 79 1013.9
20260905030205 80 117 0.0 1.0 0.00 0.06 0.00 78 1013.9
20260905025705 80 129 0.0 1.0 0.00 0.06 0.00 78 1014.1
20260905025204 80 105 0.0 1.0 0.00 0.06 0.00 77 1014.0
20260905024704 80 230 0.0 0.0 0.00 0.06 0.00 77 1014.0
20260905023705 81 309 0.0 1.0 0.00 0.06 0.00 76 1014.2
20260905023204 81 129 0.0 2.0 0.00 0.06 0.00 76 1014.0
20260905022704 81 146 1.0 2.0 0.00 0.06 0.00 76 1014.2
20260905022205 81 231 1.0 2.0 0.00 0.06 0.00 76 1014.2
20260905021706 82 117 1.0 1.0 0.00 0.06 0.00 74 1014.2
20260905020205 83 75 0.0 2.0 0.00 0.06 0.00 72 1014.2
20260905015705 83 109 1.0 2.0 0.00 0.06 0.00 72 1014.2
20260905015204 83 104 1.0 2.0 0.00 0.06 0.00 71 1014.0
20260905014704 83 102 1.0 2.0 0.00 0.06 0.00 71 1014.0
20260905014205 84 123 0.0 2.0 0.00 0.06 0.00 72 1013.8
20260905013705 84 135 0.0 2.0 0.00 0.06 0.00 69 1013.9
20260905013205 84 132 1.0 2.0 0.00 0.06 0.00 69 1013.7